Погода в Йеппуне

Австралия     23°15′32″S   150°49′16″E
темп.,
°C
ветер,
м/с
пор.,
м/с
влажн.,
%
обл.,
%
осадки,
мм/ч
давл.,
гПа
погр.,
м
15 апреля, чт
чт1501:00+21юв46670 0.0 1016500
04:00+19ююв34800 0.0 1015258
07:00+19ю34820 0.0 1016182
10:00+23юв44695 0.0 1017652
13:00+25в44647 0.0 1014842
16:00+24в44680 0.0 1013611
19:00+22всв46775 0.0 1015348
22:00+22всв468016 0.0 1016509
16 апреля, пт
пт1601:00+22всв45791 0.0 1015497
04:00+22в23795 0.0 1014437
07:00+22ююв23780 0.0 1016414
10:00+24юв33710 0.0 1017721
13:00+26в44580 0.0 1015828
16:00+25всв55610 0.0 1014665
19:00+23в57690 0.0 1016461
22:00+23в58670 0.0 1017568
17 апреля, сб
сб1701:00+22в47640 0.0 1016568
04:00+22вюв57660 0.0 1015617
07:00+22вюв57650 0.0 1017630
10:00+25вюв55560 0.0 10171111
13:00+26вюв43523 0.0 10151054
16:00+25в44550 0.0 1014587
19:00+23всв45690 0.0 1015310
22:00+22ююв34720 0.0 1016396
18 апреля, вс
вс1801:00+20ю56760 0.0 1015251
04:00+18ю45770 0.0 1015248
07:00+18ююз23720 0.0 1016204
10:00+22ююв22550 0.0 1017693
13:00+24в33530 0.0 1014902
16:00+23всв43610 0.0 1013351
19:00+21в22690 0.0 1014264
22:00+21юв34690 0.0 1016488
19 апреля, пн
пн1901:00+19ююв44730 0.0 1015347
04:00+18ююв57770 0.0 1014311
07:00+18ююв47810 0.0 1016346
10:00+22юв56650 0.0 1017733
13:00+24вюв66590 0.0 10141171
16:00+23в67670 0.0 1013812
19:00+22в57720 0.0 1015549
22:00+22в57680 0.0 1016616